Weather History for KFAY - July, 2013

Change the Weather History Date:

Monday, July 1, 2013

  Actual Average Record
Temperature  
Mean Temperature 79 °F 81 °F  
Max Temperature 85 °F 91 °F 104 °F (1959)
Min Temperature 73 °F 71 °F 52 °F (1919)
Degree Days  
Heating Degree Days 0 0  
Month to date heating degree days 0 0  
Since 1 June heating degree days 0 0  
Since 1 July heating degree days 0 0  
Cooling Degree Days 14 16  
Month to date cooling degree days 14 16  
Year to date cooling degree days 658 696  
Since 1 June cooling degree days 409 412  
Growing Degree Days 28 (Base 50)    
Moisture  
Dew Point 72 °F    
Average Humidity 84    
Maximum Humidity 94    
Minimum Humidity 74    
Precipitation  
Precipitation 1.02 in 0.16 in 3.20 in (1985)
Month to date precipitation 1.02 0.16  
Year to date precipitation 22.94 20.18  
Sea Level Pressure  
Sea Level Pressure 29.91 in    
Wind  
Wind Speed 8 mph (SSE)    
Max Wind Speed 18 mph    
Max Gust Speed 26 mph    
Visibility 8 miles    
Events Fog , Rain    
T = Trace of Precipitation, MM = Missing Value Source: NWS Daily Summary

Daily Weather History Graph

Daily Weather History Graph

Search for Another Location

Airport or City:

Trip Planner

Search our weather history database for the weather conditions in past years. The results will help you decide how hot, cold, wet, or windy it might be!

Date:

Astronomy

Jul. 01, 2013 Rise Set
Actual Time 6:05 AM EDT 8:33 PM EDT
Civil Twilight 5:35 AM EDT 9:02 PM EDT
Nautical Twilight 4:59 AM EDT 9:39 PM EDT
Astronomical Twilight 4:18 AM EDT 10:19 PM EDT
Moon 1:25 AM EDT 2:54 PM EDT
Length of Visible Light 15h 27m
Length of Day
14h 28m
Waning Crescent, 35% of the Moon is Illuminated
Jul 1
Waning Crescent
Jul 8
New
Jul 15
First Quarter
Jul 22
Full
Jul 29
Last Quarter

Hourly Weather History & Observations

Time (EDT) Temp. Heat Index Dew Point Humidity Pressure Visibility Wind Dir Wind Speed Gust Speed Precip Events Conditions
12:31 AM 75.2 °F - 73.4 °F 94% 29.86 in 10.0 mi South 4.6 mph - N/A   Mostly Cloudy
12:36 AM 75.2 °F - 73.4 °F 94% 29.86 in 10.0 mi South 4.6 mph - N/A   Mostly Cloudy
12:53 AM 75.0 °F - 73.0 °F 94% 29.84 in 10.0 mi South 5.8 mph - N/A   Mostly Cloudy
1:09 AM 73.4 °F - 73.4 °F 100% 29.86 in 10.0 mi South 6.9 mph - N/A   Partly Cloudy
1:53 AM 73.0 °F - 72.0 °F 96% 29.85 in 10.0 mi South 6.9 mph - N/A   Clear
2:11 AM 73.4 °F - 71.6 °F 94% 29.86 in 10.0 mi SE 6.9 mph - N/A   Partly Cloudy
2:53 AM 73.0 °F - 71.1 °F 93% 29.83 in 10.0 mi SSE 5.8 mph - N/A   Clear
3:15 AM 73.4 °F - 71.6 °F 94% 29.85 in 10.0 mi South 8.1 mph - N/A   Mostly Cloudy
3:30 AM 73.4 °F - 71.6 °F 94% 29.85 in 10.0 mi South 4.6 mph - N/A   Overcast
3:53 AM 73.0 °F - 72.0 °F 96% 29.84 in 10.0 mi South 6.9 mph - N/A   Overcast
4:53 AM 73.0 °F - 72.0 °F 96% 29.85 in 10.0 mi South 3.5 mph - N/A   Mostly Cloudy
5:53 AM 73.0 °F - 72.0 °F 96% 29.86 in 8.0 mi ESE 3.5 mph - N/A   Overcast
6:31 AM 73.4 °F - 71.6 °F 94% 29.87 in 2.5 mi SE 9.2 mph - 0.05 in Rain Light Rain
6:35 AM 73.4 °F - 71.6 °F 94% 29.88 in 1.8 mi SE 9.2 mph - 0.06 in Rain Rain
6:41 AM 73.4 °F - 71.6 °F 94% 29.88 in 3.0 mi SSE 9.2 mph - 0.06 in Rain Light Rain
6:50 AM 73.4 °F - 71.6 °F 94% 29.89 in 10.0 mi South 5.8 mph - 0.06 in   Overcast
6:53 AM 73.0 °F - 72.0 °F 96% 29.88 in 8.0 mi SSW 8.1 mph - 0.07 in   Overcast
7:43 AM 73.4 °F - 71.6 °F 94% 29.92 in 0.8 mi Variable 6.9 mph 19.6 mph 0.17 in Rain Heavy Rain
7:49 AM 73.4 °F - 71.6 °F 94% 29.92 in 0.2 mi SSW 9.2 mph - 0.40 in Fog , Rain Heavy Rain
7:53 AM 73.0 °F - 71.1 °F 93% 29.89 in 0.5 mi South 8.1 mph - 0.47 in Fog , Rain Heavy Rain
8:01 AM 73.4 °F - 71.6 °F 94% 29.91 in 2.0 mi SW 8.1 mph - 0.01 in Rain Light Rain
8:07 AM 73.4 °F - 71.6 °F 94% 29.91 in 10.0 mi SSW 4.6 mph - 0.01 in Rain Light Rain
8:45 AM 73.4 °F - 71.6 °F 94% 29.92 in 10.0 mi South 6.9 mph - 0.01 in   Mostly Cloudy
8:53 AM 73.9 °F - 72.0 °F 93% 29.91 in 10.0 mi South 6.9 mph - 0.01 in   Mostly Cloudy
9:53 AM 75.9 °F - 72.0 °F 87% 29.91 in 10.0 mi SSW 4.6 mph - 0.02 in   Mostly Cloudy
10:28 AM 75.2 °F - 71.6 °F 89% 29.93 in 10.0 mi Calm Calm - N/A   Mostly Cloudy
10:53 AM 77.0 °F - 70.0 °F 79% 29.91 in 10.0 mi Calm Calm - N/A   Mostly Cloudy
11:24 AM 78.8 °F - 71.6 °F 78% 29.94 in 10.0 mi Calm Calm - N/A   Scattered Clouds
11:35 AM 78.8 °F - 71.6 °F 78% 29.94 in 10.0 mi Variable 4.6 mph - N/A   Mostly Cloudy
11:53 AM 78.1 °F - 71.1 °F 79% 29.91 in 10.0 mi Calm Calm - N/A   Overcast
12:45 PM 78.8 °F - 71.6 °F 78% 29.93 in 10.0 mi Calm Calm - N/A   Scattered Clouds
12:53 PM 78.1 °F - 72.0 °F 81% 29.92 in 10.0 mi ENE 3.5 mph - N/A   Scattered Clouds
1:04 PM 78.8 °F - 73.4 °F 83% 29.94 in 10.0 mi Calm Calm - N/A   Mostly Cloudy
1:22 PM 78.8 °F - 73.4 °F 83% 29.94 in 10.0 mi Variable 3.5 mph - N/A   Mostly Cloudy
1:53 PM 80.1 °F 84.5 °F 73.9 °F 81% 29.91 in 10.0 mi SSE 9.2 mph - N/A   Mostly Cloudy
2:53 PM 82.0 °F 87.4 °F 73.0 °F 74% 29.90 in 10.0 mi SE 9.2 mph - N/A   Scattered Clouds
3:07 PM 82.4 °F 88.2 °F 73.4 °F 74% 29.92 in 10.0 mi SSE 9.2 mph - N/A   Mostly Cloudy
3:53 PM 82.0 °F 87.9 °F 73.9 °F 76% 29.91 in 10.0 mi ESE 11.5 mph - N/A   Overcast
4:17 PM 82.4 °F 88.2 °F 73.4 °F 74% 29.93 in 10.0 mi SSE 13.8 mph 19.6 mph N/A   Scattered Clouds
4:53 PM 80.1 °F 84.5 °F 73.9 °F 81% 29.92 in 10.0 mi SE 16.1 mph 21.9 mph N/A   Mostly Cloudy
5:53 PM 78.1 °F - 73.0 °F 84% 29.93 in 10.0 mi SSE 12.7 mph - 0.01 in   Mostly Cloudy
6:53 PM 75.9 °F - 73.9 °F 94% 29.95 in 10.0 mi South 8.1 mph - 0.02 in Rain Light Rain
7:53 PM 75.9 °F - 73.9 °F 94% 29.97 in 4.0 mi South 9.2 mph - 0.12 in Rain Light Rain
8:53 PM 75.9 °F - 73.9 °F 94% 29.95 in 9.0 mi SSE 13.8 mph - 0.07 in Rain Light Rain
9:53 PM 75.0 °F - 73.0 °F 94% 29.97 in 7.0 mi SSE 12.7 mph 26.5 mph 0.07 in Rain Light Rain
10:38 PM 75.2 °F - 73.4 °F 94% 30.01 in 6.0 mi SSW 8.1 mph - 0.10 in Rain Light Rain
10:53 PM 75.0 °F - 73.0 °F 94% 29.99 in 5.0 mi SSW 10.4 mph - 0.15 in Rain Rain
11:13 PM 75.2 °F - 71.6 °F 89% 30.01 in 10.0 mi South 11.5 mph - 0.00 in   Mostly Cloudy
11:39 PM 73.4 °F - 71.6 °F 94% 30.02 in 10.0 mi South 10.4 mph - 0.00 in   Scattered Clouds
11:53 PM 73.9 °F - 72.0 °F 93% 30.00 in 10.0 mi SSE 10.4 mph - 0.00 in   Mostly Cloudy